Simultaneous Nadir Overpasses (SNOs) Predictions

Prediction of SNOs between AQUA and NOAA-19 Satellite Orbit:

Table of predicted SNOs for the next 14.0 days since TLE Epoch: 4/8/2016
Index Date (AQUA) Time (AQUA) Lat,Lon (AQUA) SZA (AQUA ) Date (NOAA-19) Time (NOAA-19) Lat,Lon (NOAA-19) SZA (NOAA-19 ) Distance(km) Time Diff (sec)
1 04/09/2016 19:10:47 80.78,-145.77 74.84 04/09/2016 19:09:52 80.78,-145.87 74.87 1.87 55
2 04/09/2016 20:00:12 -80.73, 22.39 105.27 04/09/2016 20:00:53 -80.74, 22.50 105.30 1.99 41
3 04/12/2016 00:44:32 -80.77, -49.08 106.02 04/12/2016 00:44:01 -80.77, -49.06 106.01 0.49 31
4 04/12/2016 01:33:58 80.75, 118.73 73.94 04/12/2016 01:34:57 80.75, 118.72 73.92 0.45 59
5 04/14/2016 06:18:17 80.77, 47.50 73.16 04/14/2016 06:18:03 80.76, 47.67 73.15 2.99 14
6 04/16/2016 11:52:02 -80.76, 144.10 107.65 04/16/2016 11:52:14 -80.77, 144.02 107.64 1.58 12
7 04/18/2016 16:36:21 -80.78, 72.76 108.38 04/18/2016 16:35:21 -80.79, 72.67 108.34 1.82 60
8 04/18/2016 17:25:47 80.78,-119.48 71.59 04/18/2016 17:26:16 80.78,-119.63 71.59 2.64 29
9 04/20/2016 22:10:06 80.80, 169.10 70.89 04/20/2016 22:09:22 80.79, 169.22 70.88 2.61 44




NCC Satellite Simultaneous Nadir Overpasses (SNOs) Prediction Service
